User: anonymous   Login
Location: Unspecified
(0.0000°N, 0.0000°E)
Time: 04:13:19
(UTC+00:00)
Language:

STARLINK-1036 - Orbit

View from above orbital plane
View from above orbital plane
View from above satellite
View from above satellite

Ground track
Ground track

The orbit is defined by the following mean orbital elements,

1 44741U          26145.34499780 +.00000000 +00000-0 +44160-3 0 00003
2 44741  53.0423 173.4567 0003143 329.5470  30.5362 15.67560390    04
Epoch (UTC): 25 May 2026 08:16:47
Eccentricity: 0.0003143
inclination: 53.0423°
perigee height: 364 km
apogee height: 368 km
right ascension of ascending node: 173.4567°
argument of perigee: 329.5470°
revolutions per day: 15.67560390
mean anomaly at epoch: 30.5362°

The dashed part of the orbit path shows where the satellite is in the earth's shadow,  

DLR